Satellite-Ground Cal/Val Region Overpasses Predictions

Prediction of Satellite NPP Overpassing Cal/Val Region: PacNW

Region Location: (Latitude: 10.00, Longitude: 139.50) to (Latitude: 22.70, Longitude: 165.60).

Table of predicted overpasses for the next 14.0 days since TLE Epoch: 7/26/2018
Interval Starting Time Starting Location Ending Time Ending Location
1 07/27/2018 03:36:17 ( 10.02, 145.70) 07/27/2018 03:39:52 ( 22.64, 142.70)
2 07/27/2018 14:29:55 ( 11.26, 165.59) 07/27/2018 14:30:16 ( 10.03, 165.31)
3 07/27/2018 16:08:11 ( 22.65, 142.93) 07/27/2018 16:11:46 ( 10.03, 139.93)
4 07/28/2018 03:17:17 ( 10.06, 150.45) 07/28/2018 03:20:52 ( 22.68, 147.44)
5 07/28/2018 15:49:10 ( 22.67, 147.70) 07/28/2018 15:52:45 ( 10.05, 144.69)
6 07/29/2018 02:58:15 ( 10.04, 155.21) 07/29/2018 03:01:50 ( 22.66, 152.20)
7 07/29/2018 15:30:08 ( 22.69, 152.46) 07/29/2018 15:33:44 ( 10.01, 149.44)
8 07/30/2018 02:39:14 ( 10.02, 159.97) 07/30/2018 02:42:49 ( 22.64, 156.96)
9 07/30/2018 15:11:08 ( 22.65, 157.20) 07/30/2018 15:14:43 ( 10.03, 154.20)
10 07/31/2018 02:20:12 ( 10.00, 164.73) 07/31/2018 02:23:48 ( 22.68, 161.71)
11 07/31/2018 14:52:06 ( 22.67, 161.96) 07/31/2018 14:55:41 ( 10.05, 158.96)
12 08/01/2018 03:42:42 ( 10.04, 144.10) 08/01/2018 03:46:17 ( 22.67, 141.10)
13 08/01/2018 14:34:23 ( 18.11, 165.60) 08/01/2018 14:36:41 ( 10.01, 163.70)
14 08/01/2018 16:14:35 ( 22.68, 141.35) 08/01/2018 16:16:44 ( 15.12, 139.51)
15 08/02/2018 03:23:41 ( 10.02, 148.86) 08/02/2018 03:27:16 ( 22.65, 145.86)
16 08/02/2018 15:55:34 ( 22.64, 146.09) 08/02/2018 15:59:09 ( 10.02, 143.09)
17 08/03/2018 03:04:39 ( 10.01, 153.62) 08/03/2018 03:08:15 ( 22.69, 150.60)
18 08/03/2018 15:36:33 ( 22.66, 150.85) 08/03/2018 15:40:08 ( 10.04, 147.85)
19 08/04/2018 02:45:39 ( 10.05, 158.37) 08/04/2018 02:49:14 ( 22.67, 155.36)
20 08/04/2018 15:17:31 ( 22.68, 155.61) 08/04/2018 15:21:07 ( 10.00, 152.60)
21 08/05/2018 02:26:37 ( 10.03, 163.13) 08/05/2018 02:30:12 ( 22.65, 160.12)
22 08/05/2018 14:58:30 ( 22.70, 160.37) 08/05/2018 15:02:06 ( 10.02, 157.36)
23 08/06/2018 02:10:22 ( 19.76, 165.59) 08/06/2018 02:11:12 ( 22.69, 164.87)
24 08/06/2018 03:49:06 ( 10.02, 142.51) 08/06/2018 03:52:41 ( 22.64, 139.51)
25 08/06/2018 14:39:29 ( 22.66, 165.12) 08/06/2018 14:43:04 ( 10.04, 162.11)
26 08/06/2018 16:20:59 ( 22.66, 139.74) 08/06/2018 16:21:15 ( 21.72, 139.51)
27 08/07/2018 03:30:05 ( 10.06, 147.26) 08/07/2018 03:33:40 ( 22.68, 144.25)
28 08/07/2018 16:01:58 ( 22.67, 144.50) 08/07/2018 16:05:33 ( 10.06, 141.50)
29 08/08/2018 03:11:04 ( 10.04, 152.02) 08/08/2018 03:14:39 ( 22.66, 149.01)
30 08/08/2018 15:42:56 ( 22.69, 149.26) 08/08/2018 15:46:32 ( 10.01, 146.25)
31 08/09/2018 02:52:02 ( 10.02, 156.78) 08/09/2018 02:55:37 ( 22.65, 153.77)


NCC Satellite Cal/Val Overpasses Prediction Service
